GFSNIL_sfc_dewp_021.txt.gz
Dewpoint
61 60 61 61 61 62 62 61 63 62 62 62 62 62 62 60 60 62 63 63 63 63
61 62 62 62 63 62 63 61 62 62 62 62 62 61 63 61 61 62 62 61 61 61
61 63 62 63 62 63 63 62 62 62 62 62 63 62 63 61 62 62 62 62 63 63
62 61 61 62 63 62 63 62 61 61 61 62 61 61 62 62 61 61 61 62 61 62
61 60 61 62 62 63 63 62 61 61 61 60 60 61 60 60 59 60 59 61 61 61
61 60 61 62 63 62 63 62 61 61 61 60 60 61 61 60 60 61 61 61 61 61
61 60 61 62 63 63 62 62 62 62 61 60 59 59 59 60 61 61 61 62 62 62
61 61 61 62 62 62 62 62 61 62 62 60 59 59 59 60 61 61 61 62 62 63
60 59 61 62 62 62 62 62 61 61 61 60 59 50 53 58 60 61 61 61 61 61
59 59 60 60 60 62 62 63 62 61 61 60 59 49 50 53 60 61 61 61 62 60
57 58 59 59 59 61 62 62 61 61 61 60 58 47 48 52 61 62 62 62 62 61
57 57 58 57 58 59 61 61 60 61 60 58 54 46 47 56 61 60 61 62 62 62
56 57 57 58 58 59 60 60 60 61 60 55 57 45 48 56 60 59 60 61 61 52
57 59 59 61 58 59 59 60 61 60 61 60 58 53 46 51 60 60 59 60 59 59

GFSNIL_sfc_dewp_024.txt.gz
Dewpoint
63 60 60 61 60 61 64 63 63 62 63 62 61 61 62 60 62 63 65 62 62 60
62 63 61 62 63 61 63 59 62 62 62 62 62 62 63 64 62 63 65 64 64 65
62 62 62 63 62 61 62 60 62 62 61 62 62 62 63 62 63 63 64 61 62 63
62 61 62 63 62 61 62 61 60 60 61 61 62 63 64 63 61 61 62 63 62 63
61 60 63 62 62 62 61 60 59 59 60 61 61 62 61 61 60 61 61 62 62 62
61 62 62 62 63 61 60 59 59 59 60 61 61 61 61 60 60 61 62 62 62 62
61 61 61 62 62 61 60 59 59 59 60 61 60 60 60 60 61 61 62 62 62 62
61 61 61 61 61 61 61 60 59 61 61 61 60 59 60 61 61 61 62 63 62 63
59 59 61 61 61 61 61 61 60 61 61 61 59 51 53 58 61 61 62 62 63 63
58 58 60 59 59 61 62 62 61 61 61 61 61 50 51 53 61 62 62 63 62 61
56 58 59 60 61 62 63 63 62 62 61 61 59 49 49 53 61 62 63 62 64 63
55 57 58 58 62 63 63 60 61 62 61 61 60 46 48 55 61 62 62 63 62 62
55 57 56 58 62 63 63 62 61 61 59 55 58 45 47 56 60 61 61 63 62 51
56 57 59 59 62 62 61 61 62 61 62 61 59 54 47 52 61 60 60 60 59 56

GFSNIL_sfc_dewp_030.txt.gz
Dewpoint
67 65 66 66 66 66 65 65 66 64 64 64 64 63 64 64 63 62 63 61 62 62
66 66 66 66 66 65 66 64 64 64 64 64 63 64 64 63 63 63 63 62 62 62
65 65 66 66 65 65 65 62 64 64 64 64 64 63 64 64 65 63 62 62 62 62
64 63 65 65 65 65 64 63 62 63 63 63 63 63 63 64 63 62 62 61 61 61
62 64 65 65 64 64 62 62 62 61 61 61 62 64 62 62 62 62 62 61 61 61
63 64 65 64 65 64 63 61 60 60 59 61 62 62 62 62 62 62 62 61 61 61
64 63 64 65 64 64 61 60 60 61 60 61 61 61 61 61 61 62 62 62 63 62
63 63 63 64 63 63 60 59 60 61 61 61 60 59 62 62 62 63 63 63 63 61
61 61 63 63 64 64 63 62 61 62 61 61 58 51 53 58 63 63 63 62 61 60
60 59 62 62 62 63 64 64 63 62 61 60 60 50 51 53 64 63 63 62 62 62
58 58 60 61 63 64 65 64 64 63 61 60 58 52 46 49 64 63 63 63 63 62
57 59 60 61 64 65 65 64 62 62 62 60 59 46 46 56 63 63 63 63 63 62
57 60 61 63 64 65 65 63 63 62 62 57 59 47 47 54 63 62 61 61 59 52
59 61 63 64 65 65 64 62 61 61 61 61 59 57 48 48 63 62 60 59 58 55

GFSNIL_sfc_dewp_033.txt.gz
Dewpoint
60 61 62 61 61 61 61 61 61 61 61 61 61 61 61 61 60 60 59 59 59 60
61 61 61 61 61 62 61 60 61 61 61 61 61 61 60 60 60 60 58 59 59 59
61 62 62 61 60 61 61 61 60 61 61 61 60 60 61 60 61 59 59 59 59 59
61 62 61 61 61 60 60 60 61 62 61 61 61 61 60 60 61 60 59 60 59 59
61 62 61 61 61 58 59 59 59 61 61 61 61 60 60 60 60 61 60 59 59 58
61 61 61 61 61 60 59 59 59 59 60 61 61 60 60 61 60 61 61 61 61 60
60 61 61 61 61 60 60 58 59 61 61 60 59 59 59 59 60 61 61 62 61 61
60 61 61 61 60 60 59 59 61 60 59 59 59 59 59 61 61 61 61 61 61 61
60 60 61 61 60 60 61 61 61 60 59 58 57 50 52 57 61 62 61 59 60 60
60 60 60 61 60 60 60 60 60 59 59 57 55 47 47 51 62 62 61 59 60 60
58 59 60 61 60 59 59 59 60 59 58 57 53 46 46 50 61 60 62 60 60 61
58 58 59 60 61 61 61 59 60 59 57 55 53 47 46 56 61 60 61 61 60 60
58 59 60 61 60 60 59 59 61 59 57 54 54 48 46 53 60 59 59 58 57 51
59 61 61 61 61 61 59 60 59 59 58 57 55 54 46 51 60 59 59 58 56 53